パンスターズ彗星

C/2019 A9 ( PanSTARRS )

English version
Home page
Updated on August 15, 2020

---------------------------------------------------------------------

・ プロフィール

発見日 2019年1月14日
発見光度 20.3等
発見者 Pan-STARRS 1 telescope (Haleakala)

・ 写真集

・ 軌道要素

Epoch 2019 July 16.0 TT = JDT 2458680.5
T 2019 July 26.52568 TT                                 Rudenko
q   1.4263969            (2000.0)            P               Q
z  +0.0257937      Peri.  237.80144     -0.16009678     +0.07117690
 +/-0.0000000      Node   278.36848     +0.80750013     -0.56420356
e   0.9632080      Incl.   84.34157     -0.56772578     -0.82256197
From 185 observations 2018 Dec. 18-2020 June 16, mean residual 0".4.

・ 星図

・ 光度変化

        m1 = 6.0 + 5 logΔ + 25.0 log r(t - 30)  [  ,30]  (              〜2019年 8月25日)
        m1 = 6.8 + 5 logΔ + 20.0 log r(t - 30)  [30,  ]  (2019年 8月25日〜              )

---------------------------------------------------------------------

軌道要素はM.P.E.C. 2020-P19に掲載されたものです。
星図はステラナビゲータ Ver.10 (アストロアーツ) で作成したものです。
光度グラフはComet for Windowsで作成したものです。

---------------------------------------------------------------------

Copyright(C) Seiichi Yoshida (comet@aerith.net). All rights reserved.